Location: Brno
(49.2000°N, 16.6330°E)
Time: 01:34:31
(UTC+02:00)

ISS - Visible Passes

Search period start: 19 April 2015 00:00
Search period end: 29 April 2015 00:00
Orbit: 396 x 403 km, 51.6° (Epoch: 18 April)

Date Brightness Start Highest point End Pass type
(mag) Time Alt. Az. Time Alt. Az. Time Alt. Az.
19 Apr -0.8 21:54:13 10° WSW 21:55:35 12° SW 21:56:01 12° SW visible
20 Apr -1.3 20:59:21 10° W 21:01:51 20° SW 21:04:17 10° S visible
22 Apr -0.5 20:48:53 10° WSW 20:49:51 11° SW 20:50:43 10° SSW visible
